www.pogodaiklimat.ru

Погода и климат >> Архив погоды >> Бразилия >> Santa Tereza


ПОГОДА в Santa Tereza

  • Прогноз погоды в Santa Tereza
  • Монитор погоды в Santa Tereza
  • Климат города

АРХИВ ПОГОДЫ в Santa Tereza

Время (UTC), дата Ветер
(напр.,м/с)
 
Видим.   Явления Облачность Т
(С)
Тd
(С)
f
(%)
Тe
(С)
Тes
(С)
Комфортность P
(гПа)
Po
(гПа)
Тmin
(С)
Tmax
(С)
R
(мм)
R24
(мм)
S
(см)
22 13.05 Ю 1
{2}
н/о н/о +17.3 +19 +19 1018.5 908.0
23 13.05 Ю 1
{2}
н/о н/о +17.2 +19 +19 1019.3 908.7
00 14.05 Ю 1
{2}
н/о н/о +17.1 +18 +18 1019.7 909.0
01 14.05 Ю 1
{2}
н/о н/о +17.0 +19 +19 1019.6 908.9
02 14.05 Ю 1
{3}
н/о н/о +16.9 +19 +19 1019.7 908.9
03 14.05 ЮВ 1
{2}
н/о н/о +16.8 +18 +18 1019.5 908.7
04 14.05 Ю 1
{2}
н/о н/о +16.6 +18 +18 1019.3 908.5
05 14.05 Ю 1
{2}
н/о н/о +16.4 +17 +17 1019.2 908.3
06 14.05 ЮЗ 1
{2}
н/о н/о +16.3 +17 +17 1019.0 908.1
07 14.05 Ю 1
{2}
н/о н/о +16.1 +18 +18 1019.0 908.0
08 14.05 Ю 1
{3}
н/о н/о +16.2 +17 +17 1018.9 908.0
09 14.05 ЮЗ 1
{3}
н/о н/о +15.8 +17 +17 1019.7 908.5
10 14.05 Ю 1
{2}
н/о н/о +16.5 +18 +18 1020.1 909.1
11 14.05 ЮВ 1
{2}
н/о н/о +16.8 +18 +18 1020.6 909.7
12 14.05 В 1
{2}
н/о н/о +17.0 +18 +18 1021.3 910.4
13 14.05 ЮВ 1
{3}
н/о н/о +17.0 +19 +19 1021.2 910.3
14 14.05 В 1
{2}
н/о н/о +16.9 +18 +18 1021.0 910.1
15 14.05 В 1
{3}
н/о н/о +17.1 +18 +18 1020.5 909.7
16 14.05 В 1
{3}
н/о н/о +16.8 +18 +18 1019.9 909.1
17 14.05 ЮВ 1
{2}
н/о н/о +16.8 +18 +18 1019.4 908.6
18 14.05 В 1
{2}
н/о н/о +17.1 +19 +19 1019.0 908.4
19 14.05 ЮВ 1
{2}
н/о н/о +16.7 +18 +18 1019.1 908.3
20 14.05 Ю 1
{2}
н/о н/о +16.3 +18 +18 1019.2 908.3
21 14.05 Ю 1
{2}
н/о н/о +16.1 +18 +18 1019.8 908.7
22 14.05 Ю 1
{2}
н/о н/о +16.0 +18 +18 1020.5 909.3
23 14.05 Ю 1
{2}
н/о н/о +15.9 +18 +18 1021.1 909.8
00 15.05 В 1
{2}
н/о н/о +16.1 +18 +18 1021.1 909.9
01 15.05 В 1
{2}
н/о н/о +16.0 +17 +17 1020.9 909.7
02 15.05 В 1
{2}
н/о н/о +16.1 +18 +18 1020.8 909.6
03 15.05 ЮВ 1
{2}
н/о н/о +16.0 +18 +18 1020.6 909.4
04 15.05 штиль 0
{2}
н/о н/о +15.9 +16 +16 1020.4 909.2
05 15.05 В 1
{1}
н/о н/о +15.9 +18 +18 1019.9 908.7
06 15.05 В 1
{2}
н/о н/о +16.0 +18 +18 1019.3 908.2
07 15.05 В 1
{2}
н/о н/о +16.1 +18 +18 1019.0 908.0
08 15.05 В 1
{2}
н/о н/о +15.9 +18 +18 1019.4 908.3
09 15.05 штиль 0
{2}
н/о н/о +16.0 +16 +16 1020.2 909.0
10 15.05 В 1
{2}
н/о н/о +16.3 +18 +18 1020.7 909.6
11 15.05 штиль 0
{1}
н/о н/о +17.0 +17 +17 1020.9 910.0
12 15.05 В 1
{1}
н/о н/о +17.2 +19 +19 1021.5 910.6
13 15.05 штиль 0
{1}
н/о н/о +18.5 +18 +18 1020.9 910.6
14 15.05 штиль 0
{1}
н/о н/о +18.7 +18 +18 1020.3 910.1
15 15.05 штиль 0
{1}
н/о н/о +18.4 +18 +18 1019.6 909.4
16 15.05 В 1
{1}
н/о н/о +18.3 +20 +20 1018.7 908.5
17 15.05 В 1
{2}
н/о н/о +17.5 +19 +19 1018.4 908.0
18 15.05 штиль 0
{2}
н/о н/о +17.4 +17 +17 1018.0 907.6
19 15.05 штиль 0
{1}
н/о н/о +17.3 +17 +17 1017.9 907.5
20 15.05 штиль 0
{1}
н/о н/о +17.0 +17 +17 1018.2 907.6
21 15.05 штиль 0
{1}
н/о н/о +16.7 +17 +17 1018.6 907.9
22 15.05 штиль 0
{2}
н/о н/о +16.8 +17 +17 1018.9 908.2
23 15.05 штиль 0
{2}
н/о н/о +16.9 +17 +17 1019.5 908.7
00 16.05 штиль 0
{1}
н/о н/о +16.9 +17 +17 1019.7 908.9
01 16.05 штиль 0
{1}
н/о н/о +17.1 +17 +17 1019.6 908.9
02 16.05 С 1
{2}
н/о н/о +16.8 +18 +18 1019.5 908.7
03 16.05 С 1
{2}
н/о н/о +16.7 +18 +18 1019.2 908.4
04 16.05 С 1
{2}
н/о н/о +16.6 +18 +18 1018.7 907.9
05 16.05 С 1
{3}
н/о н/о +16.7 +18 +18 1018.0 907.3
06 16.05 СЗ 1
{3}
н/о н/о +16.6 +18 +18 1017.7 907.0
07 16.05 С 1
{3}
н/о н/о +16.7 +18 +18 1017.5 906.9
08 16.05 С 1
{3}
н/о н/о +16.7 +18 +18 1017.5 906.9
09 16.05 СЗ 1
{3}
н/о н/о +16.8 +18 +18 1017.8 907.2
10 16.05 СЗ 1
{3}
н/о н/о +16.7 +18 +18 1018.2 907.5
11 16.05 СЗ 2
{4}
н/о н/о +17.6 +18 +18 1018.2 907.8
12 16.05 З 1
{4}
н/о н/о +18.6 +19 +19 1018.5 908.5
13 16.05 СЗ 1
{4}
н/о н/о +19.3 +20 +20 1018.2 908.4
14 16.05 СЗ 2
{4}
н/о н/о +20.3 +20 +20 1017.2 907.9
15 16.05 З 2
{4}
н/о н/о +20.5 +20 +20 1016.6 907.4
16 16.05 СЗ 2
{3}
н/о н/о +21.1 +19 +19 1015.3 906.5
17 16.05 З 1
{3}
н/о н/о +22.2 +19 +19 1014.2 905.9
18 16.05 СЗ 1
{3}
н/о н/о +21.6 +19 +19 1014.1 905.6
19 16.05 СЗ 1
{3}
н/о н/о +20.9 +21 +21 комфорт 1014.4 905.6
20 16.05 СЗ 1
{3}
н/о н/о +19.4 +20 +20 1015.3 905.9
21 16.05 СЗ 1
{3}
н/о н/о +18.7 -17.9 7 +20 +20 1015.5 905.8
22 16.05 З 1
{3}
н/о н/о +18.2 +20 +20 1016.6 906.6
23 16.05 СЗ 1
{2}
н/о н/о +18.1 +20 +20 1016.9 906.9
00 17.05 СЗ 1
{3}
н/о н/о +18.2 +19 +19 1017.1 907.1
01 17.05 СЗ 1
{3}
н/о н/о +18.3 +19 +19 1017.3 907.3
02 17.05 СЗ 2
{3}
н/о н/о +17.9 +19 +19 1017.1 907.0
03 17.05 СЗ 2
{3}
н/о н/о +17.7 +18 +18 1017.3 907.1
04 17.05 СЗ 2
{4}
н/о н/о +18.1 +19 +19 1016.6 906.6
05 17.05 З 2
{3}
н/о н/о +17.5 +18 +18 1016.5 906.3
06 17.05 З 1
{3}
н/о н/о +17.3 +18 +18 1016.4 906.1
07 17.05 ЮЗ 1
{2}
н/о н/о +17.9 +20 +20 1016.1 906.1
08 17.05 З 1
{1}
н/о н/о +16.0 +18 +18 1017.0 906.2
09 17.05 штиль 0
{1}
н/о н/о +16.3 +16 +16 1017.6 906.8
10 17.05 штиль 0
{1}
н/о н/о +17.5 +18 +18 1018.1 907.7
11 17.05 штиль 0
{1}
н/о н/о +17.9 +18 +18 1018.7 908.4
12 17.05 штиль 0
{1}
н/о н/о +19.1 +18 +18 1018.8 908.9
13 17.05 Ю 1
{1}
н/о н/о +19.8 +20 +20 1018.6 909.0
14 17.05 Ю 1
{1}
н/о н/о +20.4 +21 +21 комфорт 1017.8 908.5
15 17.05 В 1
{1}
н/о н/о +20.0 +20 +20 1017.4 908.0
16 17.05 В 1
{2}
н/о н/о +20.1 +20 +20 1016.5 907.2
17 17.05 В 1
{2}
н/о н/о +20.7 +20 +20 1015.9 906.9
18 17.05 В 1
{2}
н/о н/о +19.7 +20 +20 1016.0 906.6
19 17.05 В 1
{2}
н/о н/о +18.6 +19 +19 1016.4 906.6
20 17.05 В 1
{3}
н/о н/о +17.9 +19 +19 1017.0 906.9
21 17.05 В 1
{2}
н/о н/о +17.6 +19 +19 1017.6 907.3
22 17.05 Ю 1
{2}
н/о н/о +17.4 +19 +19 1018.0 907.6
23 17.05 Ю 1
{3}
н/о н/о +16.9 +18 +18 1018.9 908.2
00 18.05 Ю 1
{2}
н/о н/о +16.8 +18 +18 1019.2 908.4
01 18.05 Ю 1
{2}
н/о н/о +16.5 +18 +18 1019.7 908.8
02 18.05 Ю 1
{2}
н/о н/о +16.2 +18 +18 1019.7 908.7
03 18.05 ЮЗ 1
{2}
н/о н/о +15.9 +18 +18 1019.3 908.2
04 18.05 ЮЗ 1
{2}
н/о н/о +15.9 +18 +18 1018.8 907.8
05 18.05 Ю 1
{2}
н/о н/о +16.4 +18 +18 1018.2 907.4
06 18.05 Ю 1
{2}
н/о н/о +16.3 +18 +18 1017.9 907.1
07 18.05 Ю 1
{2}
н/о н/о +16.1 +18 +18 1018.0 907.1
08 18.05 Ю 1
{2}
н/о н/о +16.1 +18 +18 1018.0 907.1
09 18.05 ЮЗ 1
{2}
н/о н/о +15.9 +18 +18 1018.4 907.4
10 18.05 ЮЗ 1
{2}
н/о н/о +16.4 +18 +18 1018.8 907.9
11 18.05 штиль 0
{1}
н/о н/о +17.9 +18 +18 1018.8 908.5
12 18.05 ЮЗ 1
{2}
н/о н/о +19.1 +20 +20 1019.2 909.3
13 18.05 штиль 0
{1}
н/о н/о +20.4 +19 +19 1018.6 909.2
14 18.05 штиль 0
{1}
н/о н/о +19.8 +19 +19 1018.4 908.8
15 18.05 штиль 0
{1}
н/о н/о +19.7 +19 +19 1017.8 908.2
16 18.05 В 1
{1}
н/о н/о +18.9 +20 +20 1017.2 907.4
17 18.05 штиль 0
{1}
н/о н/о +19.4 +18 +18 1016.3 906.8
18 18.05 штиль 0
{1}
н/о н/о +18.3 +18 +18 1016.5 906.6
19 18.05 штиль 0
{1}
н/о н/о +19.4 +18 +18 1015.9 906.4
20 18.05 штиль 0
{1}
н/о н/о +18.3 +18 +18 1016.3 906.4
21 18.05 С 1
{1}
н/о н/о +17.7 +19 +19 1016.5 906.4
22 18.05 С 1
{2}
н/о н/о +17.9 +19 +19 1016.7 906.6
23 18.05
{2}
н/о н/о +17.7 1017.0 906.8
00 19.05
{2}
н/о н/о +17.7 1017.0 906.8
01 19.05 С 1
{2}
н/о н/о +17.6 +19 +19 1016.8 906.6
02 19.05 С 1
{3}
н/о н/о +16.9 +18 +18 1016.8 906.3
03 19.05 С 1
{3}
н/о н/о +16.8 +18 +18 1016.5 906.0
04 19.05 С 1
{3}
н/о н/о +16.7 +18 +18 1016.2 905.7
05 19.05 С 1
{2}
н/о н/о +16.8 +18 +18 1015.5 905.1
06 19.05 С 1
{3}
н/о н/о +17.0 +19 +19 1015.1 904.9
07 19.05 С 1
{2}
н/о н/о +17.0 +18 +18 1014.9 904.7
08 19.05 С 1
{3}
н/о н/о +17.0 +18 +18 1015.1 904.9
09 19.05 С 1
{4}
н/о н/о +17.1 +18 +18 1015.3 905.1
10 19.05 СЗ 1
{4}
н/о н/о +16.9 +18 +18 1016.5 906.1
11 19.05 С 1
{4}
н/о н/о +17.0 +18 +18 1016.9 906.5
12 19.05 С 1
{3}
н/о н/о +17.3 +18 +18 1017.2 906.8
13 19.05 СЗ 2
{4}
н/о н/о +17.6 +18 +18 1016.9 906.7
14 19.05 С 2
{5}
н/о н/о +17.9 +19 +19 1016.0 906.0
15 19.05 С 1
{5}
н/о н/о +18.7 +19 +19 1014.8 905.2
16 19.05 СЗ 1
{4}
н/о н/о +19.5 +20 +20 1013.4 904.2
17 19.05 С 1
{5}
н/о н/о +20.5 +20 +20 1012.2 903.5
18 19.05 С 1
{4}
н/о н/о +20.4 +20 +20 1011.4 902.8
19 19.05 СЗ 1
{3}
н/о н/о +19.7 +20 +20 1011.5 902.6
20 19.05 СЗ 2
{4}
н/о н/о +18.7 +19 +19 1011.6 902.3
21 19.05 С 1
{4}
н/о н/о +18.5 +19 +19 1012.1 902.7
22 19.05 С 1
{3}
н/о н/о +18.4 +19 +19 1012.1 902.7
23 19.05 С 1
{3}
н/о н/о +18.4 +19 +19 1012.5 903.0
00 20.05 СЗ 1
{3}
н/о н/о +18.5 +20 +20 1012.9 903.4
01 20.05 С 1
{3}
н/о н/о +18.3 +19 +19 1012.7 903.2
02 20.05 С 1
{3}
н/о н/о +18.1 +19 +19 1012.6 903.0
03 20.05 С 1
{3}
н/о н/о +17.9 +19 +19 1012.4 902.8
04 20.05 С 1
{3}
н/о н/о +17.7 +19 +19 1012.5 902.8
05 20.05 З 2
{5}
н/о н/о +16.9 +17 +17 1012.2 902.2
06 20.05 З 3
{5}
н/о н/о +16.9 +17 +17 1011.7 901.8
07 20.05 СЗ 2
{6}
н/о н/о +16.6 +17 +17 1011.5 901.5
08 20.05 СЗ 2
{4}
н/о н/о +16.5 +17 +17 1011.5 901.5
09 20.05 С 2
{4}
н/о н/о +16.7 +17 +17 1011.2 901.3
10 20.05 СЗ 2
{4}
н/о н/о +17.5 +18 +18 1011.1 901.5
11 20.05 З 1
{4}
н/о н/о +17.4 +19 +19 1011.4 901.7
12 20.05 СЗ 2
{4}
н/о н/о +19.1 +19 +19 1010.5 901.5
13 20.05 З 3
{6}
н/о н/о +19.3 +19 +19 1011.3 902.3
14 20.05 З 2
{6}
н/о н/о +19.3 -27.1 3 +19 +19 1011.5 902.5
15 20.05 З 2
{6}
н/о н/о +19.7 -26.8 3 +19 +19 1010.7 901.9
16 20.05 З 2
{5}
н/о н/о +20.1 -23.6 4 +20 +20 1010.1 901.5
17 20.05 З 2
{5}
н/о н/о +22.0 -25.3 3 +19 +19 1008.6 900.8
18 20.05 З 2
{6}
н/о н/о +19.9 -26.7 3 +20 +20 1009.7 901.1
19 20.05 З 2
{4}
н/о н/о +19.2 -18.9 6 +19 +19 1010.9 901.9
20 20.05 З 1
{4}
н/о н/о +18.4 -27.7 3 +19 +19 1012.0 902.6

 

Местоположение метеостанции Santa Tereza (Бразилия): широта -19.98 долгота -40.58 высота над уровнем моря 990 м.

В архиве по умолчанию представлена погода в Santa Tereza за последнюю неделю. Архивные данные за месяц целиком и за предыдущие месяцы, начиная с января 2011 года, Вы можете получить, выбрав интересующий диапазон дат из раскрывающегося списка и нажав кнопку "Ввод!".


*Определитесь, кто Вы:
робот инопланетянин человек

Внимание! Время в таблицах - всемирное. Для получения местного времени необходимо прибавить поправку, которая в Santa Tereza равна -3 ч.

Смотрите также архив погоды в соседних городах и на ближайших метеорологических станциях:

Погода в Vitoria (Бразилия) (44 км)
Погода в Vitoria (Бразилия) (47 км)
Погода в Alfredo Chaves (Бразилия) (74 км)
Погода в Aimores (Бразилия) (74 км)
Погода в Aimores (Бразилия) (75 км)
Погода в Linhares (Бразилия) (88 км)
Погода в Alegre (Бразилия) (127 км)
Погода в Presidente Kennedy (Бразилия) (133 км)
Погода в Mantena (Бразилия) (140 км)
Погода в Nova Venecia (Бразилия) (144 км)

Пояснения к столбцам:

Ветер - указаны скорость ветра в м/с - средняя за 10 мин, порывы в срок и между сроками (в фигурных скобках) и направление, откуда дует ветер: С - северный, СВ - северо-восточный, В - восточный, ЮВ - юго-восточный, Ю - южный, ЮЗ - юго-западный, З - западный, СЗ - северо-западный.
Видимость - горизонтальная дальность видимости в метрах или километрах. При видимости от 1 до 10 км при отсутствии осадков обычно наблюдается дымка, при ухудшении видимости до 1 км и менее - туман. В сухую погоду видимость может ухудшаться дымом, пылью или мглою.
Явления - указаны атмосферные явления, наблюдавшиеся в срок или в последний час перед сроком; фигурными скобками обозначены явления, наблюдавшиеся между сроками (за 1-3 часа до срока); квадратными скобками обозначены град или гололедные отложения с указанием их диаметра в мм.
Облачность - указаны через наклонную черту общая и нижняя облачность в баллах и высота нижней границы облаков в метрах; квадратными скобками обозначены формы облаков: Ci - перистые, Cs - перисто-слоистые, Cc - перисто-кучевые, Ac - высококучевые, As - высокослоистые, Sc - слоисто-кучевые, Ns - слоисто-дождевые, Cu - кучевые, Cb - кучево-дождевые. Подробнее классификацию облаков см. в Атласе облаков (PDF).
T - Температура воздуха - температура, измеренная на высоте 2 м над землей.
Td - Температура точки росы - температура, при понижении до которой содержащийся в воздухе водяной пар достигнет насыщения.
f - Относительная влажность воздуха - влажноcть воздуха, измеренная на высоте 2 м над землей.
Te - Эффективная температура - температура, которую ощущает одетый по сезону человек в тени. Характеристика душности погоды. При расчете учитывается влияние влажности воздуха и скорости ветра на теплоощущения человека.
Tes - Эффективная температура на солнце - температура, которую ощущает человек, с поправкой на солнечный нагрев. Характеристика знойности погоды. Зависит от высоты солнца над горизонтом, облачности и скорости ветра. Ночью, в пасмурную погоду, а также при ветре 12 м/с и более поправка равна нулю.
P - Атмосферное давление - приведенное к уровню моря атмосферное давление.
Po - Атмосферное давление - измеренное на уровне метеостанции атмосферное давление.
Tmin - Минимальная температура - минимум температуры воздуха на высоте 2 м над землей.
Tmax - Максимальная температура - максимум температуры воздуха на высоте 2 м над землей.
R - Количество осадков - Количество выпавших осадков за период времени, мм. При наведении курсора мыши на число - период времени, за который выпало указанное количество осадков.
R24 - Количество осадков - Количество выпавших осадков за 24 часа, мм.
S - Снежный покров - Высота снежного покрова, см. При наведении курсора мыши на число - состояние снежного покрова и степень покрытия местности в баллах.